Eastsound, WA
on Sunday, November 11, 2012

Sunday
Previous Day Next Day
Daily Summary
 ActualAverage (KBLI)Record (KBLI)
Temperature
Mean Temperature °F 44°F  
Max Temperature 46°F 51°F 67°F (1977)
Min Temperature 32°F 38°F 10°F (1955)
Degree Days
Heating Degree Days 26 21  
Month to date heating degree days 216  
Cooling Degree Days 0 0  
Month to date cooling degree days 0  
Year to date cooling degree days 42  
Moisture
Dew Point 34°F   
Average Humidity 82    
Maximum Humidity 100    
Minimum Humidity 70    
Precipitation
Precipitation 0.28 in 0.20 in 1.46 in (1958)
Month to date precipitation 2.13  
Year to date precipitation 27.94  
Wind
Wind Speed 4 mph   
Max Wind Speed 13 mph   
Max Gust Speed 21 mph   
Visibility 8 miles   
Events Rain   

Key: T is trace of precipitation, MM is missing value
Source: NWS Daily Summary
Time(PST)TemperatureDew PointHumidity Pressure Visibility Wind DirectionWind SpeedGust SpeedPrecipitationEvents Conditions
12:15 AM 32.0°F 26.6°F 80% 30.21 in 10.0 miles Calm Calm - N/A   Clear
12:35 AM 32.0°F 26.6°F 80% 30.21 in 10.0 miles Calm Calm - N/A   Clear
12:55 AM 32.0°F 26.6°F 80% 30.21 in 10.0 miles Calm Calm - N/A   Clear
1:15 AM 32.0°F 28.4°F 87% 30.22 in 10.0 miles Calm Calm - N/A   Clear
1:35 AM 32.0°F 26.6°F 80% 30.22 in 10.0 miles Calm Calm - N/A   Clear
1:55 AM 32.0°F 28.4°F 87% 30.22 in 10.0 miles Calm Calm - N/A   Clear
2:15 AM 32.0°F 28.4°F 87% 30.21 in 10.0 miles Calm Calm - N/A   Clear
2:35 AM 32.0°F 28.4°F 87% 30.21 in 10.0 miles Calm Calm - N/A   Clear
2:55 AM 32.0°F 28.4°F 87% 30.21 in 10.0 miles ESE 4.6 mph - N/A   Clear
3:15 AM 35.6°F 28.4°F 75% 30.21 in 10.0 miles Calm Calm - N/A   Clear
3:35 AM 37.4°F 30.2°F 75% 30.20 in 10.0 miles East 3.5 mph - N/A   Clear
3:55 AM 37.4°F 30.2°F 75% 30.20 in 10.0 miles North - - N/A   Clear
4:15 AM 35.6°F 30.2°F 81% 30.19 in 10.0 miles Calm Calm - N/A   Clear
4:35 AM 37.4°F 30.2°F 75% 30.20 in 10.0 miles Calm Calm - N/A   Clear
4:55 AM 35.6°F 30.2°F 81% 30.20 in 10.0 miles Calm Calm - N/A   Clear
5:35 AM 35.6°F 32.0°F 87% 30.20 in 10.0 miles Calm Calm - N/A   Clear
5:55 AM 35.6°F 32.0°F 87% 30.19 in 10.0 miles Calm Calm - N/A   Clear
6:15 AM 37.4°F 30.2°F 75% 30.19 in 10.0 miles Calm Calm - N/A   Clear
6:35 AM 39.2°F 32.0°F 75% 30.19 in 10.0 miles ENE 9.2 mph - N/A   Scattered Clouds
6:55 AM 37.4°F 32.0°F 81% 30.20 in 10.0 miles NE 4.6 mph - N/A   Mostly Cloudy
7:55 AM 37.4°F 32.0°F 81% 30.19 in 10.0 miles ENE 10.4 mph - N/A   Mostly Cloudy
8:15 AM 37.4°F 30.2°F 75% 30.19 in 10.0 miles ENE 10.4 mph 16.1 mph N/A   Mostly Cloudy
8:35 AM 37.4°F 30.2°F 75% 30.19 in 10.0 miles East 6.9 mph - N/A   Overcast
8:55 AM 37.4°F 30.2°F 75% 30.20 in 10.0 miles East 5.8 mph - N/A   Mostly Cloudy
9:15 AM 37.4°F 30.2°F 75% 30.20 in 10.0 miles ENE 5.8 mph - N/A   Mostly Cloudy
9:35 AM 37.4°F 30.2°F 75% 30.20 in 10.0 miles ENE 8.1 mph - N/A   Overcast
9:55 AM 39.2°F 30.2°F 70% 30.20 in 10.0 miles ENE 6.9 mph - N/A   Overcast
10:15 AM 39.2°F 30.2°F 70% 30.20 in 10.0 miles ENE 6.9 mph - N/A   Overcast
10:35 AM 39.2°F 32.0°F 75% 30.20 in 10.0 miles ENE 6.9 mph - N/A   Overcast
10:55 AM 39.2°F 30.2°F 70% 30.20 in 10.0 miles ENE 8.1 mph - N/A   Overcast
11:15 AM 39.2°F 32.0°F 75% 30.20 in 10.0 miles ENE 5.8 mph - N/A Rain Light Rain
11:35 AM 39.2°F 32.0°F 75% 30.19 in 8.0 miles ENE 4.6 mph - N/A Rain Light Rain
11:55 AM 39.2°F 32.0°F 75% 30.19 in 9.0 miles East 4.6 mph - N/A   Overcast
12:15 PM 39.2°F 32.0°F 75% 30.18 in 5.0 miles East 4.6 mph - N/A Rain Light Rain
12:35 PM 39.2°F 35.6°F 87% 30.18 in 4.0 miles East 9.2 mph - N/A Rain Light Rain
12:55 PM 41.0°F 35.6°F 81% 30.17 in 4.0 miles East 4.6 mph - N/A Rain Light Rain
1:15 PM 41.0°F 35.6°F 81% 30.16 in 8.0 miles East 8.1 mph 17.3 mph N/A Rain Light Rain
1:35 PM 41.0°F 35.6°F 81% 30.15 in 9.0 miles North - - N/A Rain Light Rain
1:55 PM 41.0°F 35.6°F 81% 30.14 in 8.0 miles NE 5.8 mph - N/A Rain Light Rain
2:15 PM 41.0°F 37.4°F 87% 30.13 in 10.0 miles NE 11.5 mph 20.7 mph N/A   Overcast
2:35 PM 39.2°F 35.6°F 87% 30.13 in 10.0 miles NE 10.4 mph 17.3 mph N/A   Overcast
2:55 PM 41.0°F 35.6°F 81% 30.12 in 10.0 miles NE 10.4 mph 16.1 mph N/A   Overcast
3:15 PM 39.2°F 35.6°F 87% 30.12 in 10.0 miles NE 6.9 mph - N/A   Overcast
3:35 PM 39.2°F 35.6°F 87% 30.11 in 10.0 miles ENE 8.1 mph - N/A   Overcast
3:55 PM 41.0°F 35.6°F 81% 30.10 in 10.0 miles NE 10.4 mph 16.1 mph N/A   Overcast
4:15 PM 41.0°F 37.4°F 87% 30.09 in 9.0 miles East 5.8 mph - N/A Rain Light Rain
4:35 PM 44.6°F 37.4°F 76% 30.08 in 10.0 miles NNE 4.6 mph - N/A Rain Light Rain
4:55 PM 44.6°F 37.4°F 76% 30.07 in 9.0 miles ESE 3.5 mph - N/A Rain Light Rain
5:15 PM 44.6°F 39.2°F 81% 30.07 in 5.0 miles SE 5.8 mph - N/A Rain Light Rain
5:35 PM 44.6°F 39.2°F 81% 30.06 in 4.0 miles ESE 8.1 mph - 0.01 in Rain Rain
5:55 PM 44.6°F 39.2°F 81% 30.05 in 5.0 miles SE 6.9 mph - 0.01 in Rain Light Rain
6:15 PM 44.6°F 41.0°F 87% 30.04 in 4.0 miles SSE 8.1 mph 20.7 mph 0.02 in Rain Rain
6:35 PM 44.6°F 41.0°F 87% 30.04 in 4.0 miles SSE 9.2 mph 17.3 mph 0.06 in Rain Rain
6:55 PM 44.6°F 41.0°F 87% 30.03 in 4.0 miles SE 11.5 mph 20.7 mph 0.11 in Rain Rain
7:15 PM 44.6°F 41.0°F 87% 30.02 in 4.0 miles SSE 12.7 mph 17.3 mph 0.04 in Rain Heavy Rain
7:35 PM 44.6°F 41.0°F 87% 30.02 in 4.0 miles SE 8.1 mph 19.6 mph 0.13 in Rain Rain
7:55 PM 44.6°F 41.0°F 87% 30.02 in 5.0 miles ESE 5.8 mph - 0.15 in Rain Light Rain
8:15 PM 44.6°F 41.0°F 87% 30.03 in 5.0 miles East 6.9 mph - 0.01 in Rain Light Rain
8:35 PM 41.0°F 39.2°F 93% 30.03 in 5.0 miles NE 9.2 mph - 0.01 in Rain Light Rain
8:55 PM 41.0°F 39.2°F 93% 30.03 in 5.0 miles NNE 9.2 mph - 0.01 in Rain Light Rain
9:15 PM 41.0°F 39.2°F 93% 30.04 in 5.0 miles NE 6.9 mph - N/A Rain Light Rain
9:35 PM 41.0°F 39.2°F 93% 30.04 in 4.0 miles NE 8.1 mph - N/A Rain Light Rain
9:55 PM 41.0°F 39.2°F 93% 30.04 in 3.0 miles NE 9.2 mph 17.3 mph N/A Rain Light Rain
10:15 PM 41.0°F 39.2°F 93% 30.04 in 5.0 miles NNW 3.5 mph - N/A Rain Light Rain
10:35 PM 41.0°F 41.0°F 100% 30.04 in 4.0 miles ENE 5.8 mph - N/A Rain Light Rain
10:55 PM 42.8°F 41.0°F 93% 30.03 in 6.0 miles SSE 5.8 mph - N/A Rain Light Rain
11:15 PM 44.6°F 41.0°F 87% 30.03 in 10.0 miles East 4.6 mph - N/A Rain Light Rain
11:35 PM 46.4°F 42.8°F 87% 30.03 in 9.0 miles SE 5.8 mph - N/A Rain Light Rain
11:55 PM 46.4°F 42.8°F 87% 30.02 in 10.0 miles SE 8.1 mph - N/A Rain Light Rain
Moon Phase
Nov. 11 Nov. 13 Nov. 20 Nov. 28 Dec. 06
Sunrise:07:14 AM (PST) Moon Rise:04:25 AM (PST)11/11
Sunset:04:35 PM (PST) Moon Set:03:10 PM (PST)11/11

Copyright © 2014 The Weather Underground, Inc.